Torna al catalogo

FALCON 9 R/B

AttivoVLEO
NORAD 49498·ROCKET BODY·🇺🇸 United States

Lanciato Nov 24, 2021 da Vandenberg Space Force Base

Loading…

Prossimi Passaggi (prossime 24 ore)

TLE

ObsoletoSource: Space-Track

Epoca: Nov 24, 2021, 06:29 UTC

1 49498U 21110B   21328.27016493 -.00002228  70442-5  00000-0 0  9994
2 49498  64.7700 235.9449 0056200 158.7100 355.4000 16.00379554    08

Traccia FALCON 9 R/B in tempo reale con AllMySat

Download on the App Store